Regional Weather Roundup
Issued by NWS Cleveland, OH

Home | Current Version | Previous Version | Graphics & Text | Print | Product List | Glossary On
Versions: 1 2 3 4 5 6 7 8 9 10 11 12 13 14 15 16 17 18 19 20 21 22 23 24 25 26 27 28 29 30 31 32 33 34 35 36 37 38 39 40 41 42 43 44 45 46 47 48 49 50
000
ASUS41 KCLE 261210
RWRCLE
OHIO REGIONAL WEATHER ROUNDUP
NATIONAL WEATHER SERVICE CLEVELAND, OH
700 AM EST FRI DEC 26 2014

NOTE: "FAIR" INDICATES FEW OR NO CLOUDS BELOW 12,000 FEET WITH NO
SIGNIFICANT WEATHER AND/OR OBSTRUCTIONS TO VISIBILITY.

OHZ001>008-015>018-024>027-034-035-043-044-261300-
   NORTHWEST OHIO

CITY           SKY/WX    TMP DP  RH WIND       PRES   REMARKS
DEFIANCE       CLEAR     34  30  85 S8        30.14S WCI  27
FINDLAY        CLEAR     34  30  85 S12       30.16S WCI  25
TOLEDO EXPRESS CLEAR     32  29  88 S7        30.15R WCI  26
TOLEDO EXEC    CLEAR     32  28  85 S8        30.17R WCI  25
LIMA           FAIR      34  29  82 S9        30.16S WCI  27
$$

OHZ009>014-019>023-028>033-038-089-261300-
   NORTHEAST OHIO

CITY           SKY/WX    TMP DP  RH WIND       PRES   REMARKS
CLE-HOPKINS    CLEAR     34  29  82 S9        30.23S WCI  27
CLE-LAKEFRONT  CLEAR     36  29  75 S6        30.21S
CUY CO. ARPT   CLEAR     36  30  80 SW12      30.22
LORAIN-ELYRIA  CLEAR     32  29  88 S9        30.21R WCI  24
ASHTABULA      CLEAR     33  28  81 S8        30.23S WCI  26
AKRON-CANTON   CLEAR     30  25  81 S6        30.23R WCI  24
WOOSTER        CLEAR     30  28  92 S8        30.23R WCI  22
MANSFIELD      CLEAR     31  29  92 S9        30.20R WCI  23
YOUNGSTOWN     PTCLDY    32  27  81 S7        30.23S WCI  26
$$

OHZ042-051>053-060>062-070>072-077>081-261300-
  SOUTHWEST OHIO

CITY           SKY/WX    TMP DP  RH WIND       PRES   REMARKS
CINC-COVINGTON PTCLDY    32  26  78 S5        30.21S WCI  27
CINC-LUNKEN    PTCLDY    23  23 100 CALM      30.26R
HAMILTON       CLEAR     29  28  96 E6        30.24R WCI  23
DAYTON         CLEAR     33  30  88 S9        30.20S WCI  25
WRIGHT-PAT AFB CLEAR     30  28  93 S6        30.21F WCI  24
DAYTON GENERAL CLEAR     32  30  92 S10       30.20S WCI  24
WILMINGTON     CLEAR     31  28  89 S7        30.22R WCI  24
$$

OHZ036-037-039>041-045>050-054>059-063>069-073>076-082>088-261300-
  CENTRAL AND SOUTHEAST OHIO

CITY           SKY/WX    TMP DP  RH WIND       PRES   REMARKS
COLUMBUS       CLEAR     29  26  89 SE3       30.24S
OSU AIRPORT    FAIR      31  27  85 SE6       30.23S WCI  25
BOLTON FIELD   NOT AVBL
RICKENBACK AFB CLEAR     26  25  95 CALM      30.24S
NEWARK         CLEAR     27  25  92 CALM      30.25R
MARION         CLEAR     30  27  88 S12       30.21R WCI  20
LANCASTER      CLEAR     27  24  89 CALM      30.26R
ZANESVILLE     CLEAR     28  25  88 S3        30.27R
NEW PHILLY     CLEAR     31  27  85 SE5       30.27R WCI  26
$$


USA.gov is the U.S. government's official web portal to all federal, state and local government web resources and services.